STARLINK-5197, 54097

Orbit data source: Space-Track

STARLINK-5197, 54097 is a payload satellite owned by SpaceX/Seattle (US) in LEO that was launched on Thu, 20 Oct 2022 UTC via an FALCON 9 launch vehicle from the Air Force Eastern Test Range (AFETR). Payload-class satellites include a variety of spacecraft equipped with specific instruments for various scientific and technological missions. These include communications satellites like Starlink; space stations such as the ISS; scientific satellites like the Hubble; Earth observation satellites from companies like Planet Labs, Umbra, and HawkEye 360; GPS; miniature CubeSats for education and research; and military/defense satellites.

Loading next visibility...
Identifier
54097, 2022-136AY
Orbit
LEO
Country
Flag of USUS
Related business
Manufacturer
SpaceX/Seattle
Mission
Operational Commercial Communications
Bus & Motor
STARLINK, Unknown motor
Mass
305 kg wet, ~290 kg dry
Launch date (UTC)
2022-10-20 (4 years ago)
Launch vehicle
FALCON 9
Launch site
Air Force Eastern Test Range (AFETR)
Object type
Payload
Rocket body
Debris
Shape & HBR
Box + 1 Pan, 10.1 m
Radar Cross Section
13.562 m², Large (>1 m²)

Expand to show TLE details & history
Last TLE update: 2 days ago

TLE from 2 days ago
0 STARLINK-5197
1 54097U 22136AY  26171.34723653  .00000029  00000-0  19911-4 0  9995
2 54097  53.1590 208.0874 0001091  80.2994 279.8121 15.08826866202837
Epoch: 2026-06-20T08:20Z
TLE epoch observation values (Epoch: 2026-06-20T08:20:01.236Z)
Latitude
0.00002°
Longitude
174.5191°
Altitude
540.546 km
Speed
7.593 km/s
True Right ascension
13h 52m 20s
True Declination
0° 00' 00"
Sunlit
Object was in full shadow at epoch
Visualization orbit readout
Latitude
Unknown
Longitude
Unknown
Altitude
Unknown
Speed
Unknown
Apparent Right ascension
Unknown
Apparent Declination
Unknown
Sunlit
N/A
Visualization observer readout
Local Sidereal Time
21:34:44
Azimuth
Unknown
Elevation
Unknown
Doppler factor
Unknown
Orbital elements
Apogee altitude
540.793 km
Perigee altitude
539.283 km
Semi-major axis
6,918.175 km
Eccentricity
0.00011
Inclination
53.159°
RAAN
208.0874°
Arg. of periapsis
80.2994°
True anomaly
279.79978°
Mean anomaly
279.8121°
Eccentric anomaly
279.80594°
Mean motion
3.77186 °/min
Orbital period
95.44 mins
BSTAR
0.000019911
Loading maneuver chart data...
Computing Atmospheric mass density...
Loading historical data...
Loading historical data...
Loading historical data...
Loading historical data...
Loading historical data...
Loading historical data...
Loading historical data...

Documentation

Showing up to 5 results
|